Find Starlink 34296

NORAD ID: 64216 Int'l Des: 2025-117 Owner: SPXS Country: US Constellation: starlink operational
LEOCIRCULAR

現在のビュー

3D地球を読み込み中...

About Starlink 34296

Starlink 34296 (NORAD 64216) is a starlink constellation satellite (v2 mini) launched May 31, 2025 by SPXS of US. It operates in LEO, CIRCULAR orbit with a mass of 575.00 kg.

次回通過

Passes for default location (London). Set your location on the main map for personalized predictions.

高度履歴

Loading altitude history...

軌道要素

1 64216U 25117P 26263.47409186 .00024266 00000-0 72691-3 0 9991
2 64216 53.1570 213.7400 0001739 74.7950 285.3245 15.34403606 74395
Epoch: Sep 20, 2026 • Age: 9 hours

現在のステータス

高度 479.4 km
遠地点 / 近地点 N/A
速度 7.63 km/s
衛星直下点 -46.59°S, 146.88°W
打ち上げ日 May 31, 2025
運用期間 1.3 years
タイプ internet

技術仕様

分類 Payload
質量 575.00 kg
乾燥質量 530.00 kg
長さ 0.30 m
スパン 29.00 m
形状 ? Box + pan
製造者 SPXS
バスタイプ Starlink V2MO
フェーズステータス In Orbit
所有者/国 SPXS/US

Most Searched